Tracking 25648 objects as of 17-May-2022
HD Live streaming from Space Station
objects crossing your sky now

COSMOS 2251 DEB

Track COSMOS 2251 DEB now!
10-day predictions


NORAD ID: 38199
Int'l Code: 1993-036BSP
Perigee: 755.3 km
Apogee: 1,317.7 km
Inclination: 74.0 °
Period: 105.7 minutes
Semi major axis: 7407 km
RCS: 0.0096 m2 (small)
Launch date: June 16, 1993
Source: Commonwealth of Independent States (former USSR) (CIS)
Launch site: PLESETSK MISSILE AND SPACE COMPLEX (PKMTR)

Note: This is SATELLITE DEBRIS
aabbcc
Your satellite tracking list
Your tracking list is empty




NASA's NSSDC Master Catalog

Two Line Element Set (TLE):
1 38199U 93036BSP 22134.07462733  .00000323  00000-0  27892-3 0  9994
2 38199  73.9588  46.0143 0379644 230.6670 126.0225 13.61746088431906
Source of the keplerian elements: AFSPC